"TOA5","AWS1","CR1000","7964","CR1000.Std.14","CPU:AWS1_114.CR1","64363","TBL110"
"TIMESTAMP","RECORD","Wind_spd_WVc(1)","Wind_spd_WVc(2)","Air_Temp_Avg","Humidity_Avg","SW_upper_Wm2_Avg","Rain_Tot","Press_Avg","Issui_Tot","Depth_cm","SR50A_Raw","Quality","Ground_Temp_Avg(1)","Ground_Temp_Avg(2)","SW_lower_Wm2_Avg","Albedo_Avg","SWC_per(1)","SWC_per(2)","Period(1)","Period(2)"
"TS","RN","","","","","","","","","","","","","","","","","","",""
"","","WVc","WVc","Avg","Avg","Avg","Tot","Avg","Tot","Smp","Smp","Smp","Avg","Avg","Avg","Avg","Smp","Smp","Smp","Smp"
"2016-10-08 00:00:00",256525,0.755,149.9,12.84,85.7,0,0,873.0239,0,-1.723,3.124,213,16.62,17.18,0,0,49.95,56.87,33.28,34.95
"2016-10-08 00:10:00",256526,0.565,128.9,13.16,84.8,0,0,872.9523,0,-1.044,3.115,226,16.61,17.16,0.2046354,0,49.9,56.87,33.27,34.95
"2016-10-08 00:20:00",256527,0.566,132,13.53,82.9,0,0,872.7795,0,-0.827,3.111,211,16.55,17.15,0.4357976,0,49.9,56.87,33.27,34.95
"2016-10-08 00:30:00",256528,0.258,73.84,13.8,81.8,0,0,872.7142,0,-0.923,3.111,220,16.54,17.14,0.466114,0,49.9,56.87,33.27,34.95
"2016-10-08 00:40:00",256529,0.42,4.601,13.99,80.9,0.07467545,0,872.7395,0,-0.712,3.108,211,16.54,17.13,0.4888512,0.273,49.9,56.87,33.27,34.95
"2016-10-08 00:50:00",256530,0.548,17.02,14.15,80.3,0.07074516,0,872.7037,0,-3.891,3.139,205,16.55,17.13,0.2311622,0.241,49.9,56.87,33.27,34.95
"2016-10-08 01:00:00",256531,0.436,184.7,13.87,82.5,0,0,872.5016,0,-4.131,3.143,220,16.57,17.12,0,0,49.9,56.87,33.27,34.95
"2016-10-08 01:10:00",256532,0.373,81.9,13.93,81.5,0,0,872.4742,0,-3.837,3.138,232,16.57,17.12,0.1288445,0,49.9,56.87,33.27,34.95
"2016-10-08 01:20:00",256533,0.365,140.5,14.01,81.7,0,0,872.4615,0,-3.016,3.13,275,16.57,17.15,0.05305362,0,49.9,56.81,33.27,34.94
"2016-10-08 01:30:00",256534,0.437,116.6,14.04,81.5,0,0,872.3351,0,-4.199,3.142,234,16.53,17.15,0.04168499,0,49.9,56.87,33.27,34.95
"2016-10-08 01:40:00",256535,0.529,97.8,14.12,81.3,0,0,872.2067,0,-3.167,3.131,275,16.5,17.16,0.08715952,0,49.9,56.81,33.27,34.94
"2016-10-08 01:50:00",256536,0.612,48.94,14.25,80.6,0,0,872.0613,0,-3.724,3.135,219,16.5,17.18,0.1781086,0,49.9,56.87,33.27,34.95
"2016-10-08 02:00:00",256537,0.728,113.6,14.39,80.1,0,0,871.9012,0,-3.059,3.129,205,16.51,17.17,0.1212654,0,49.9,56.87,33.27,34.95
"2016-10-08 02:10:00",256538,0.814,126.4,14.59,79.15,0,0,871.7032,0,-2.178,3.119,206,16.5,17.15,0.2387413,0,49.84,56.87,33.26,34.95
"2016-10-08 02:20:00",256539,0.987,129.7,14.8,77.67,0,0,871.6991,0,-3.429,3.13,228,16.45,17.16,0.1591609,0,49.84,56.81,33.26,34.94
"2016-10-08 02:30:00",256540,0.791,129.6,14.98,76.22,0,0,871.657,0,-2.607,3.122,261,16.45,17.17,0.08336998,0,49.84,56.87,33.26,34.95
"2016-10-08 02:40:00",256541,0.765,123.5,14.86,76.92,0,0,871.4505,0,-1.713,3.114,259,16.45,17.18,0,0,49.84,56.81,33.26,34.94
"2016-10-08 02:50:00",256542,0.762,141.4,15,76.53,0,0,871.341,0,-1.488,3.109,244,16.48,17.18,0.09094907,0,49.84,56.81,33.26,34.94
"2016-10-08 03:00:00",256543,0.826,132.3,15.22,75.61,0,0,871.2147,0,-3.652,3.131,206,16.47,17.18,0.09852815,0,49.9,56.81,33.27,34.94
"2016-10-08 03:10:00",256544,0.81,142.1,15.28,75.37,0,0,871.1556,0,-2.492,3.119,232,16.46,17.18,0.125055,0,49.84,56.81,33.26,34.94
"2016-10-08 03:20:00",256545,0.614,131.5,15.35,75.22,0,0,870.985,0,-3.701,3.131,219,16.41,17.13,0.02273727,0,49.9,56.75,33.27,34.93
"2016-10-08 03:30:00",256546,0.784,168.4,15.38,75.22,0,0,870.9787,0,-1.783,3.11,253,16.41,17.12,0.1515818,0,49.84,56.81,33.26,34.94
"2016-10-08 03:40:00",256547,0.554,122.9,15.6,74.3,0,0,870.9913,0,-2.757,3.119,234,16.41,17.12,0.03789544,0,49.84,56.81,33.26,34.94
"2016-10-08 03:50:00",256548,0.512,77.82,15.6,74.92,0,0,870.9787,0,-1.687,3.11,245,16.41,17.11,0.03031636,0,49.84,56.81,33.26,34.94
"2016-10-08 04:00:00",256549,0.506,125.8,15.53,75.61,0,0,870.7933,0,-0.81,3.101,282,16.41,17.1,0,0,49.84,56.81,33.26,34.94
"2016-10-08 04:10:00",256550,0.497,86.9,15.49,76.31,0,0,870.8292,0,-3.387,3.127,229,16.4,17.1,0,0,49.84,56.81,33.26,34.94
"2016-10-08 04:20:00",256551,0.525,24.98,15.38,77.36,0,0,870.7429,0,-4.003,3.133,210,16.36,17.1,0,0,49.84,56.81,33.26,34.94
"2016-10-08 04:30:00",256552,0.481,50.93,15.09,79.53,0,0,870.6712,0,-1.296,3.109,253,16.32,17.1,0,0,49.84,56.81,33.26,34.94
"2016-10-08 04:40:00",256553,0.445,68.48,14.74,82.2,0,0,870.4417,0,-3.513,3.132,227,16.34,17.1,0,0,49.84,56.81,33.26,34.94
"2016-10-08 04:50:00",256554,0.642,34.55,14.83,81.6,0.01572115,0,870.4311,0,-2.426,3.12,256,16.35,17.1,0.04168499,0.064,49.84,56.75,33.26,34.93
"2016-10-08 05:00:00",256555,0.609,214.9,15.12,80.5,0.1886538,0,870.4311,0,-1.592,3.11,240,16.37,17.07,0.1970563,0.514,49.84,56.75,33.26,34.93
"2016-10-08 05:10:00",256556,0.655,132.9,15.19,81.1,0.03930287,0,870.4122,0,-5.037,3.144,191,16.35,17.06,0.1098968,0.145,49.84,56.75,33.26,34.93
"2016-10-08 05:20:00",256557,0.668,112.2,15.29,81.6,0,0,870.4206,0,-3.725,3.131,217,16.31,17.07,0.03031636,0,49.84,56.75,33.26,34.93
"2016-10-08 05:30:00",256558,0.566,107.6,15.1,83.5,0,0,870.3574,0,-1.139,3.107,228,16.31,17.04,0,0,49.84,56.75,33.26,34.93
"2016-10-08 05:40:00",256559,0.228,145.9,15.16,83.9,0,0,870.0352,0,-0.974,3.104,215,16.32,17.02,0.003789545,0,49.84,56.75,33.26,34.93
"2016-10-08 05:50:00",256560,0.598,134.7,15.16,85,0,0,869.793,0,-4.837,3.143,199,16.31,17.05,0.3941126,0,49.84,56.75,33.26,34.93
"2016-10-08 06:00:00",256561,0.814,118,15.04,87.1,0,0,869.6771,0,-1.091,3.107,278,16.32,17.06,0.473693,0,49.84,56.75,33.26,34.93
"2016-10-08 06:10:00",256562,0.615,38.07,15.01,88.4,0.01572115,0,869.6729,0,-2.19,3.117,273,16.32,17.05,0.7162239,0.064,49.84,56.75,33.26,34.93
"2016-10-08 06:20:00",256563,0.466,329.5,14.95,89.9,2.684386,0,869.6771,0,0.292,3.094,351,16.32,17.05,1.00044,0.4,49.79,56.75,33.24,34.93
"2016-10-08 06:30:00",256564,0.439,19.6,14.63,92.6,8.025646,0,869.5065,0,0.019,3.099,304,16.32,17.04,1.466554,0.192,49.84,56.75,33.26,34.93
"2016-10-08 06:40:00",256565,0.349,53.82,14.33,95.8,26.85565,0,869.4349,0,-1.014,3.11,213,16.32,17.04,4.202605,0.158,49.79,56.75,33.24,34.93
"2016-10-08 06:50:00",256566,0.446,27.43,14.28,97.1,27.51594,0,869.2895,0,-1.165,3.111,222,16.32,17.01,4.134393,0.151,49.79,56.75,33.24,34.93
"2016-10-08 07:00:00",256567,0.345,7.201,14.34,96.1,33.32097,0,869.2432,0,-2.039,3.12,235,16.32,17.01,4.805142,0.144,49.79,56.75,33.24,34.93
"2016-10-08 07:10:00",256568,0.518,311.4,14.04,99,39.75485,0,869.338,0,-2.298,3.123,222,16.32,17.01,5.312942,0.133,49.84,56.7,33.26,34.91
"2016-10-08 07:20:00",256569,0.494,81.2,14.15,100,50.69677,0,869.1674,0,-1.882,3.118,217,16.32,17.01,6.885602,0.136,49.79,56.75,33.24,34.93
"2016-10-08 07:30:00",256570,0.629,48.96,14.43,99.9,53.50299,0,869.1105,0,-1.768,3.115,239,16.32,17.02,7.522246,0.141,49.79,56.75,33.24,34.93
"2016-10-08 07:40:00",256571,0.709,105.9,14.82,96.9,59.35519,0,869.1695,0,-1.936,3.115,202,16.32,17.02,8.579529,0.145,49.79,56.7,33.24,34.91
"2016-10-08 07:50:00",256572,0.602,62.99,15.03,96.3,69.55036,0,869.18,0,-0.933,3.105,218,16.32,17.02,9.780813,0.14,49.84,56.7,33.26,34.91
"2016-10-08 08:00:00",256573,0.842,28.38,15.08,98.4,62.69201,0,869.3444,0,-3.139,3.126,201,16.3,17.02,8.697004,0.138,49.84,56.7,33.26,34.91
"2016-10-08 08:10:00",256574,0.534,29.62,15.12,99.9,55.12621,0.5,869.3275,0,0.046,3.095,219,16.29,17.02,7.105396,0.129,49.79,56.7,33.24,34.91
"2016-10-08 08:20:00",256575,0.382,62.54,15.14,100,49.51375,0,869.4075,0,-4.215,3.136,192,16.32,17.02,6.248959,0.126,49.79,56.75,33.24,34.93
"2016-10-08 08:30:00",256576,0.874,33.45,15.25,100,72.03036,0,869.416,0,-2.564,3.119,189,16.33,17.01,9.470072,0.131,49.79,56.7,33.24,34.91
"2016-10-08 08:40:00",256577,0.501,65.24,15.55,100,101.7591,0,869.4286,0,-2.305,3.116,198,16.32,17.01,13.66889,0.134,49.79,56.7,33.24,34.91
"2016-10-08 08:50:00",256578,0.844,72.93,15.54,100,104.298,0,869.4286,0,-2.044,3.113,204,16.32,17.01,13.83184,0.132,49.79,56.7,33.24,34.91
"2016-10-08 09:00:00",256579,0.717,72.96,15.68,100,71.39759,0,869.4601,0,-2.456,3.117,211,16.34,17.01,9.166907,0.128,49.79,56.7,33.24,34.91
"2016-10-08 09:10:00",256580,0.937,63.43,15.62,100,50.82254,0,869.5528,0,-1.791,3.111,216,16.35,17.01,6.040534,0.118,49.79,56.7,33.24,34.91
"2016-10-08 09:20:00",256581,0.5,70.38,15.51,100,44.9389,0,869.4707,0,-1.917,3.112,227,16.39,16.99,5.301573,0.118,49.79,56.7,33.24,34.91
"2016-10-08 09:30:00",256582,0.753,74.04,15.52,100,61.18278,0,869.4244,0,-1.585,3.109,219,16.41,16.95,7.389612,0.12,49.79,56.7,33.24,34.91
"2016-10-08 09:40:00",256583,0.799,51.01,15.61,100,49.55699,0,869.4075,0,-1.269,3.105,276,16.41,16.95,5.866214,0.118,49.79,56.7,33.24,34.91
"2016-10-08 09:50:00",256584,0.844,45.53,15.61,100,40.80031,0,869.4054,0,-3.84,3.13,201,16.44,16.93,4.763457,0.116,49.79,56.7,33.24,34.91
"2016-10-08 10:00:00",256585,0.907,94.5,15.58,100,32.56636,0,869.4496,0,-3.175,3.124,220,16.46,16.93,3.869125,0.118,49.79,56.7,33.24,34.91
"2016-10-08 10:10:00",256586,0.857,67.36,15.52,100,66.7795,0,869.4749,0,-1.64,3.11,202,16.44,16.93,8.348367,0.124,49.79,56.7,33.24,34.91
"2016-10-08 10:20:00",256587,0.793,92.6,15.47,100,82.02902,0,869.4222,0,-2.051,3.114,202,16.41,16.95,10.00819,0.121,49.79,56.7,33.24,34.91
"2016-10-08 10:30:00",256588,0.677,42.7,15.4,100,79.18349,0,869.1926,0,-2.051,3.114,202,16.41,16.95,9.939975,0.125,49.73,56.64,33.23,34.9
"2016-10-08 10:40:00",256589,0.63,38.27,15.42,99.1,43.59081,0,869.1611,0,-2.026,3.114,243,16.41,16.96,5.131043,0.115,49.73,56.7,33.23,34.91
"2016-10-08 10:50:00",256590,0.584,40.85,15.29,100,30.91957,0,868.9821,0,-1.67,3.111,213,16.45,16.97,3.6607,0.119,49.73,56.7,33.23,34.91
"2016-10-08 11:00:00",256591,0.459,122.7,15.24,100,32.74715,0,868.8557,0,-1.906,3.114,196,16.52,16.97,3.937337,0.12,49.73,56.7,33.23,34.91
"2016-10-08 11:10:00",256592,0.814,58.11,15.23,100,82.50065,0,868.6093,0,-2.255,3.116,198,16.57,16.97,10.41746,0.126,49.73,56.7,33.23,34.91
"2016-10-08 11:20:00",256593,0.385,56.29,15.44,100,121.0803,0,868.4176,0,-1.996,3.113,189,16.55,16.97,15.34008,0.127,49.79,56.7,33.24,34.91
"2016-10-08 11:30:00",256594,0.615,119,15.5,100,54.77641,0,868.3038,0,-1.742,3.111,192,16.54,16.97,6.434647,0.117,49.79,56.64,33.24,34.9
"2016-10-08 11:40:00",256595,0.721,125.4,15.34,100,44.40438,0,867.9606,0,-1.852,3.113,196,16.54,16.95,5.3281,0.12,49.79,56.64,33.24,34.9
"2016-10-08 11:50:00",256596,0.73,118.6,15.35,100,99.62098,0,867.8194,0,-1.434,3.108,188,16.52,16.94,12.52065,0.126,49.79,56.64,33.24,34.9
"2016-10-08 12:00:00",256597,0.739,108.1,15.4,100,65.44714,0,867.6383,0,-1.766,3.111,195,16.5,16.96,8.147521,0.124,49.79,56.64,33.24,34.9
"2016-10-08 12:10:00",256598,0.754,123.4,15.33,100,53.2829,0,867.4255,0,-1.797,3.112,216,16.52,16.94,6.430857,0.121,49.73,56.64,33.23,34.9
"2016-10-08 12:20:00",256599,0.734,129.3,15.35,100,52.22565,0,867.2634,0,-1.331,3.107,269,16.56,16.94,6.120114,0.117,49.79,56.64,33.24,34.9
"2016-10-08 12:30:00",256600,0.802,99.4,15.4,100,51.84441,0,867.1496,0,-2.05,3.114,200,16.58,16.93,6.014007,0.116,49.79,56.64,33.24,34.9
"2016-10-08 12:40:00",256601,0.821,86,15.4,100,48.43686,0,867.0169,0,-1.434,3.108,196,16.58,16.93,5.600946,0.116,49.79,56.64,33.24,34.9
"2016-10-08 12:50:00",256602,0.758,106.6,15.39,100,37.01151,1.5,866.9074,0,-1.023,3.104,245,16.57,16.89,3.982811,0.107,49.79,56.64,33.24,34.9
"2016-10-08 13:00:00",256603,0.905,116,15.39,100,34.59438,0.5,866.7579,0,-1.434,3.108,284,16.52,16.9,3.675858,0.106,49.79,56.64,33.24,34.9
"2016-10-08 13:10:00",256604,0.757,102.2,15.43,100,48.92814,0,866.6104,0,-0.707,3.1,358,16.56,16.92,5.619895,0.114,49.84,56.7,33.26,34.91
"2016-10-08 13:20:00",256605,0.746,103.2,15.51,100,55.72361,0,866.4567,0,-0.755,3.1,251,16.58,16.91,6.536964,0.116,49.9,56.64,33.27,34.9
"2016-10-08 13:30:00",256606,0.638,88.9,15.59,100,31.83139,0,866.4041,0,-0.557,3.099,240,16.58,16.93,3.653121,0.114,49.95,56.7,33.28,34.91
"2016-10-08 13:40:00",256607,0.629,112.2,15.59,100,45.86645,0,866.3408,0,-1.063,3.103,376,16.58,16.91,5.32052,0.116,50.01,56.64,33.3,34.9
"2016-10-08 13:50:00",256608,0.52,91.8,15.62,100,51.08587,0,866.1534,0,-2.195,3.114,275,16.61,16.92,6.048113,0.118,50.06,56.64,33.31,34.9
"2016-10-08 14:00:00",256609,0.605,116.8,15.68,100,73.77934,0,866.1092,0,-2.757,3.119,236,16.66,16.9,8.886481,0.12,50.06,56.7,33.31,34.91
"2016-10-08 14:10:00",256610,0.674,123.1,15.72,100,100.2616,0,865.8964,0,-2.758,3.119,245,16.67,16.91,12.38044,0.123,50.11,56.7,33.33,34.91
"2016-10-08 14:20:00",256611,1.06,111.1,15.71,100,61.52864,0,865.9217,0,-0.55,3.098,252,16.67,16.95,7.226661,0.117,50.11,56.7,33.33,34.91
"2016-10-08 14:30:00",256612,0.899,92.2,15.82,100,131.5742,0,865.8901,0,-0.948,3.1,213,16.7,16.95,16.95442,0.128,50.22,56.7,33.35,34.91
"2016-10-08 14:40:00",256613,1.017,117.7,16.01,100,178.0892,0,865.8901,0,-1.874,3.109,205,16.68,16.94,22.96843,0.129,50.17,56.75,33.34,34.93
"2016-10-08 14:50:00",256614,0.971,122.1,15.99,100,174.2414,0,865.8122,0,-1.691,3.107,201,16.67,16.93,22.83579,0.131,50.22,56.75,33.35,34.93
"2016-10-08 15:00:00",256615,1.068,121.9,15.93,100,93.24998,0,865.6374,0,-1.263,3.104,206,16.67,16.93,11.4899,0.123,50.22,56.75,33.35,34.93
"2016-10-08 15:10:00",256616,0.959,119.8,16,100,190.6621,0,865.6248,0,-1.201,3.102,206,16.67,16.93,25.19668,0.131,50.22,56.81,33.35,34.94
"2016-10-08 15:20:00",256617,0.905,102.6,16.07,100,52.79948,0,865.5889,0,-0.535,3.096,207,16.67,16.93,6.544543,0.124,50.28,56.81,33.37,34.94
"2016-10-08 15:30:00",256618,0.871,127.7,16,100,121.9332,0,865.4836,0,-0.845,3.099,225,16.68,16.93,16.04114,0.131,50.28,56.87,33.37,34.95
"2016-10-08 15:40:00",256619,0.924,132.5,16.02,100,65.45107,0,865.5615,0,-0.33,3.094,240,16.72,16.93,8.302892,0.127,50.22,56.87,33.35,34.95
"2016-10-08 15:50:00",256620,1.127,123.8,16.09,100,35.9975,0,865.4941,0,-1.115,3.1,244,16.68,16.93,4.812721,0.135,50.28,56.87,33.37,34.95
"2016-10-08 16:00:00",256621,1.032,140.5,16.29,100,45.90575,0,865.3846,0,-0.418,3.093,226,16.71,16.93,6.339908,0.138,50.28,56.87,33.37,34.95
"2016-10-08 16:10:00",256622,0.807,122,16.34,100,58.49446,0,865.3846,0,-3.198,3.12,230,16.75,16.93,7.973201,0.136,50.28,56.87,33.37,34.95
"2016-10-08 16:20:00",256623,0.948,102.2,16.38,100,39.03561,0,865.3888,0,-3.919,3.127,203,16.75,16.93,5.305362,0.136,50.28,56.93,33.37,34.97
"2016-10-08 16:30:00",256624,0.942,101.3,16.37,100,17.13998,0,865.4941,0,-3.348,3.121,206,16.75,16.93,2.315412,0.136,50.22,56.93,33.35,34.97
"2016-10-08 16:40:00",256625,0.803,83.4,16.37,100,9.420897,0,865.5678,0,-3.61,3.124,202,16.77,16.93,1.360446,0.146,50.28,56.93,33.37,34.97
"2016-10-08 16:50:00",256626,0.694,66.88,16.39,100,8.481559,0,865.7701,0,-1.495,3.103,241,16.85,16.93,1.261918,0.152,50.28,56.93,33.37,34.97
"2016-10-08 17:00:00",256627,0.692,102.3,16.33,100,14.78574,0,865.7743,0,-3.253,3.121,198,16.91,16.93,2.205515,0.15,50.28,56.98,33.37,34.98
"2016-10-08 17:10:00",256628,0.554,76.75,16.34,100,4.960022,0,865.7469,0,-3.863,3.126,200,16.87,16.93,1.008019,0.212,50.28,56.98,33.37,34.98
"2016-10-08 17:20:00",256629,0.701,49.55,16.22,100,1.705745,0,865.8522,0,-3.537,3.124,210,16.87,16.93,0.424429,0.255,50.28,56.98,33.37,34.98
"2016-10-08 17:30:00",256630,0.964,101.4,16.19,100,0.4480527,0,865.7827,0,-3.228,3.121,198,16.87,16.93,0.5191676,0.822,50.22,56.98,33.35,34.98
"2016-10-08 17:40:00",256631,0.697,133.7,16.1,100,0,0,865.4857,0,-3.362,3.123,199,16.86,16.93,0.4623244,0,50.28,57.04,33.37,34.99
"2016-10-08 17:50:00",256632,0.864,136.9,16.13,99.7,0,0,865.4667,0,-3.67,3.126,205,16.85,16.93,0.6366435,0,50.28,57.04,33.37,34.99
"2016-10-08 18:00:00",256633,0.67,150.2,16.07,98.5,0,0,865.3593,0,-3.259,3.122,205,16.85,16.93,0.6252748,0,50.28,57.04,33.37,34.99
"2016-10-08 18:10:00",256634,0.612,121.6,16.12,97.3,0,0,865.393,0,-3.568,3.125,214,16.84,16.93,0.7730671,0,50.28,56.98,33.37,34.98
"2016-10-08 18:20:00",256635,0.646,142.8,16.13,96.5,0,0,865.3846,0,-3.102,3.12,200,16.84,16.93,0.765488,0,50.28,56.98,33.37,34.98
"2016-10-08 18:30:00",256636,0.716,133.6,16.2,95,0,0,865.3846,0,-2.587,3.115,226,16.84,16.93,0.856437,0,50.28,56.98,33.37,34.98
"2016-10-08 18:40:00",256637,0.699,105.3,16.15,95.8,0,0,865.4583,0,-3.362,3.123,201,16.84,16.94,0.6593807,0,50.28,57.04,33.37,34.99
"2016-10-08 18:50:00",256638,0.845,91.3,16.08,97.7,0,0,865.5742,0,-3.543,3.125,197,16.84,16.94,0.6139062,0,50.28,57.04,33.37,34.99
"2016-10-08 19:00:00",256639,0.889,81.5,16.07,97.4,0,0,865.61,0,-1.589,3.106,246,16.84,16.99,0.7692775,0,50.28,57.04,33.37,34.99
"2016-10-08 19:10:00",256640,0.895,84.2,16.15,96.2,0,0,865.5994,0,-2.23,3.112,229,16.84,16.97,0.7806462,0,50.22,57.04,33.35,34.99
"2016-10-08 19:20:00",256641,0.768,84,16.16,95.1,0,0,865.5194,0,-1.407,3.104,284,16.84,16.98,0.8526475,0,50.22,57.1,33.35,35.01
"2016-10-08 19:30:00",256642,0.442,57.29,16.14,96.4,0,0,865.6395,0,-3.671,3.126,200,16.84,17,0.7124344,0,50.22,57.04,33.35,34.99
"2016-10-08 19:40:00",256643,0.534,83.9,16.06,96.6,0,0,865.6163,0,-2.594,3.116,237,16.84,17.01,0.5873794,0,50.22,57.04,33.35,34.99
"2016-10-08 19:50:00",256644,0.883,110.1,15.99,96.8,0,0,865.4246,0,-3.211,3.122,196,16.84,17.01,0.6896971,0,50.28,57.04,33.37,34.99
"2016-10-08 20:00:00",256645,0.966,106.9,16.07,94.8,0,0,865.3467,0,-2.285,3.113,206,16.84,17.01,0.9094906,0,50.28,57.1,33.37,35.01
"2016-10-08 20:10:00",256646,0.686,132,16.07,93.3,0,0,865.1572,0,-1.874,3.109,212,16.85,17.01,0.8526475,0,50.28,57.04,33.37,34.99
"2016-10-08 20:20:00",256647,0.641,95.5,15.91,94.9,0,0,865.254,0,-1.777,3.109,213,16.85,17.01,0.5873794,0,50.22,57.04,33.35,34.99
"2016-10-08 20:30:00",256648,0.751,83,15.9,95.9,0,0,865.3846,0,-4.27,3.133,232,16.87,17.01,0.6896971,0,50.22,57.1,33.35,35.01
"2016-10-08 20:40:00",256649,0.655,104.3,15.97,95,0,0,865.1951,0,-2.436,3.114,207,16.88,17.02,0.8261207,0,50.22,57.1,33.35,35.01
"2016-10-08 20:50:00",256650,0.63,112.9,16.01,93.7,0,0,864.9908,0,-2.696,3.117,213,16.88,17.01,0.7692775,0,50.22,57.1,33.35,35.01
"2016-10-08 21:00:00",256651,0.789,105.8,15.99,93.6,0,0,864.8791,0,-3.084,3.121,214,16.88,17.01,0.814752,0,50.22,57.1,33.35,35.01
"2016-10-08 21:10:00",256652,0.301,95.7,15.94,94.5,0,0,864.8602,0,-2.6,3.117,209,16.88,17.01,0.6290644,0,50.28,57.1,33.37,35.01
"2016-10-08 21:20:00",256653,0.535,88,15.86,96.3,0,0,864.9002,0,-4.39,3.133,187,16.86,17.01,0.6139062,0,50.22,57.1,33.35,35.01
"2016-10-08 21:30:00",256654,0.754,101.4,16.01,95.1,0,0,864.8834,0,-3.337,3.123,194,16.87,17.01,0.7389612,0,50.22,57.1,33.35,35.01
"2016-10-08 21:40:00",256655,0.622,124.5,16.04,93.8,0,0,864.9128,0,-2.594,3.116,205,16.9,17,0.7579089,0,50.28,57.1,33.37,35.01
"2016-10-08 21:50:00",256656,0.667,106.4,16.04,93.3,0,0,865.0203,0,-2.902,3.119,204,16.91,16.99,0.7579089,0,50.22,57.1,33.35,35.01
"2016-10-08 22:00:00",256657,0.472,106.3,16.01,93.3,0,0,864.6348,0,-2.751,3.118,227,16.91,16.98,0.7086448,0,50.22,57.1,33.35,35.01
"2016-10-08 22:10:00",256658,0.616,149.5,15.96,93.6,0,0,864.262,0,-2.703,3.118,200,16.91,17,0.7995939,0,50.22,57.1,33.35,35.01
"2016-10-08 22:20:00",256659,0.64,132,15.83,94.4,0,0,864.1145,0,-2.6,3.117,202,16.87,16.99,0.807173,0,50.28,57.16,33.37,35.02
"2016-10-08 22:30:00",256660,0.687,136.9,15.82,94.4,0,0,864.1103,0,-2.758,3.119,236,16.83,16.99,0.7958043,0,50.22,57.1,33.35,35.01
"2016-10-08 22:40:00",256661,0.686,146,15.78,94.8,0,0,863.9523,0,-4.863,3.139,195,16.82,16.98,0.807173,0,50.22,57.1,33.35,35.01
"2016-10-08 22:50:00",256662,0.648,144.1,15.83,94.4,0,0,863.6595,0,-4.657,3.137,195,16.77,16.99,0.8299103,0,50.22,57.1,33.35,35.01
"2016-10-08 23:00:00",256663,0.551,142.9,15.82,95.1,0,0,863.5585,0,-1.208,3.103,273,16.77,16.98,0.7920148,0,50.22,57.1,33.35,35.01
"2016-10-08 23:10:00",256664,0.642,123.2,15.93,94,0,0,863.3626,0,-3.677,3.127,210,16.76,16.98,0.939807,0,50.22,57.1,33.35,35.01
"2016-10-08 23:20:00",256665,0.755,127.2,15.86,95.2,0,0,863.3584,0,1.103,3.081,448,16.75,16.97,0.6821181,0,50.22,57.1,33.35,35.01
"2016-10-08 23:30:00",256666,0.56,93.9,15.83,96.2,0,0,863.2172,0,0.383,3.088,336,16.75,16.99,0.6404331,0,50.22,57.1,33.35,35.01
"2016-10-08 23:40:00",256667,0.518,137.7,15.84,96.3,0,0,862.954,0,-0.029,3.092,277,16.75,16.98,0.6934866,0,50.22,57.1,33.35,35.01
"2016-10-08 23:50:00",256668,0.624,109.2,15.78,96.9,0,0,862.8676,0,-0.701,3.099,244,16.75,17.01,0.557063,0,50.22,57.1,33.35,35.01
